�������l�o���
Date,Time,MP-1(��Sv/h),MP-2(��Sv/h),MP-3(��Sv/h),MP-4(��Sv/h),MP-5(��Sv/h),MP-6(��Sv/h),MP-7(��Sv/h),MP-8(��Sv/h),����,����(m/s),���J
2022/09/30,00:00,0.578,0.831,0.533,1.031,0.728,0.338,0.592,0.557,�k��,1.4,��
2022/09/30,00:10,0.576,0.832,0.532,1.031,0.730,0.339,0.592,0.556,�k,1.7,��
2022/09/30,00:20,0.577,0.831,0.533,1.031,0.731,0.340,0.592,0.558,�k�k��,2.3,��
2022/09/30,00:30,0.576,0.832,0.532,1.030,0.730,0.339,0.593,0.558,�k�k��,2.6,��
2022/09/30,00:40,0.577,0.833,0.534,1.032,0.729,0.340,0.592,0.557,���k��,1.7,��
2022/09/30,00:50,0.577,0.831,0.532,1.029,0.730,0.339,0.590,0.558,���쓌,2.2,��
2022/09/30,01:00,0.577,0.832,0.533,1.030,0.730,0.340,0.592,0.558,���k��,2.0,��
2022/09/30,01:10,0.578,0.831,0.533,1.031,0.729,0.340,0.592,0.557,�k�k��,2.2,��
2022/09/30,01:20,0.578,0.831,0.532,1.030,0.729,0.341,0.592,0.557,�k�k��,2.6,��
2022/09/30,01:30,0.575,0.833,0.533,1.029,0.729,0.340,0.591,0.558,�k�k��,2.6,��
2022/09/30,01:40,0.577,0.831,0.534,1.030,0.730,0.339,0.590,0.559,�k��,0.9,��
2022/09/30,01:50,0.578,0.831,0.531,1.032,0.728,0.340,0.591,0.555,-,CALM,��
2022/09/30,02:00,0.577,0.832,0.532,1.027,0.729,0.339,0.593,0.557,�k��,0.9,��
2022/09/30,02:10,0.579,0.832,0.531,1.030,0.732,0.340,0.591,0.557,�k��,2.8,��
2022/09/30,02:20,0.577,0.831,0.533,1.032,0.730,0.340,0.593,0.558,�k�k��,4.5,��
2022/09/30,02:30,0.579,0.831,0.533,1.030,0.729,0.340,0.592,0.557,�k�k��,3.3,��
2022/09/30,02:40,0.578,0.831,0.534,1.033,0.729,0.340,0.592,0.556,�k�k��,3.3,��
2022/09/30,02:50,0.578,0.831,0.531,1.031,0.729,0.340,0.592,0.556,�k�k��,3.1,��
2022/09/30,03:00,0.578,0.829,0.532,1.030,0.730,0.340,0.591,0.554,�k�k��,3.4,��
2022/09/30,03:10,0.577,0.829,0.533,1.031,0.731,0.339,0.592,0.556,�k�k��,3.3,��
2022/09/30,03:20,0.577,0.831,0.533,1.032,0.731,0.340,0.593,0.557,�k�k��,3.3,��
2022/09/30,03:30,0.578,0.830,0.533,1.032,0.729,0.339,0.593,0.558,�k�k��,3.6,��
2022/09/30,03:40,0.575,0.830,0.531,1.032,0.729,0.340,0.593,0.557,�k�k��,4.1,��
2022/09/30,03:50,0.578,0.829,0.531,1.031,0.730,0.340,0.591,0.557,�k�k��,3.8,��
2022/09/30,04:00,0.577,0.828,0.531,1.029,0.730,0.340,0.592,0.558,�k�k��,3.5,��
2022/09/30,04:10,0.576,0.830,0.531,1.030,0.729,0.340,0.593,0.557,�k�k��,3.5,��
2022/09/30,04:20,0.576,0.830,0.531,1.030,0.729,0.339,0.592,0.558,�k�k��,3.9,��
2022/09/30,04:30,0.575,0.832,0.532,1.031,0.729,0.340,0.592,0.558,�k�k��,3.9,��
2022/09/30,04:40,0.577,0.830,0.531,1.030,0.730,0.339,0.594,0.556,�k�k��,3.3,��
2022/09/30,04:50,0.576,0.831,0.533,1.030,0.729,0.339,0.593,0.558,�k�k��,3.8,��
2022/09/30,05:00,0.578,0.830,0.534,1.031,0.729,0.340,0.592,0.557,�k�k��,3.8,��
2022/09/30,05:10,0.576,0.828,0.532,1.031,0.728,0.339,0.593,0.557,�k�k��,3.8,��
2022/09/30,05:20,0.576,0.830,0.532,1.029,0.729,0.341,0.592,0.557,�k�k��,3.7,��
2022/09/30,05:30,0.575,0.831,0.530,1.031,0.728,0.339,0.593,0.558,�k�k��,3.8,��
2022/09/30,05:40,0.575,0.832,0.532,1.031,0.728,0.339,0.593,0.557,�k�k��,3.1,��
2022/09/30,05:50,0.576,0.832,0.532,1.031,0.730,0.338,0.592,0.556,�k�k��,2.8,��
2022/09/30,06:00,0.577,0.829,0.531,1.031,0.729,0.340,0.593,0.558,�k�k��,2.5,��
2022/09/30,06:10,0.577,0.832,0.532,1.032,0.729,0.340,0.591,0.557,�k�k��,2.5,��
2022/09/30,06:20,0.578,0.829,0.529,1.032,0.728,0.339,0.592,0.557,�k�k��,2.3,��
2022/09/30,06:30,0.576,0.829,0.531,1.030,0.730,0.339,0.592,0.558,�k�k��,2.3,��
2022/09/30,06:40,0.577,0.831,0.530,1.033,0.730,0.340,0.591,0.558,�k�k��,2.0,��
2022/09/30,06:50,0.578,0.829,0.531,1.033,0.727,0.339,0.593,0.558,�k�k��,2.6,��
2022/09/30,07:00,0.576,0.832,0.533,1.031,0.729,0.340,0.590,0.557,�k�k��,2.6,��
2022/09/30,07:10,0.578,0.831,0.533,1.030,0.729,0.339,0.593,0.557,�k�k��,3.5,��
2022/09/30,07:20,0.578,0.828,0.531,1.031,0.729,0.340,0.593,0.556,�k�k��,3.2,��
2022/09/30,07:30,0.577,0.830,0.532,1.031,0.730,0.339,0.593,0.558,�k�k��,2.3,��
2022/09/30,07:40,0.578,0.830,0.531,1.030,0.728,0.340,0.594,0.557,�k�k��,2.0,��
2022/09/30,07:50,0.578,0.830,0.532,1.032,0.729,0.340,0.594,0.559,�k�k��,1.7,��
2022/09/30,08:00,0.576,0.828,0.531,1.033,0.729,0.342,0.591,0.557,�k,2.0,��
2022/09/30,08:10,0.578,0.826,0.531,1.031,0.729,0.340,0.593,0.558,�k,2.0,��
2022/09/30,08:20,0.576,0.826,0.532,1.032,0.730,0.340,0.590,0.557,�k�k��,2.0,��
2022/09/30,08:30,0.576,0.827,0.533,1.034,0.730,0.339,0.590,0.558,�k,1.4,��
2022/09/30,08:40,0.578,0.825,0.533,1.034,0.729,0.339,0.590,0.559,�k��,1.9,��
2022/09/30,08:50,0.576,0.827,0.532,1.034,0.729,0.339,0.591,0.558,�k��,1.9,��
2022/09/30,09:00,0.578,0.826,0.532,1.032,0.729,0.339,0.591,0.558,�k�k��,2.2,��
2022/09/30,09:10,0.578,0.826,0.533,1.030,0.728,0.338,0.591,0.557,�k��,2.8,��
2022/09/30,09:20,0.577,0.830,0.533,1.032,0.729,0.339,0.591,0.554,�k��,2.8,��
2022/09/30,09:30,0.577,0.826,0.529,1.032,0.728,0.339,0.592,0.557,�k�k��,2.9,��
2022/09/30,09:40,0.579,0.829,0.529,1.033,0.728,0.338,0.593,0.556,�k�k��,2.5,��
2022/09/30,09:50,0.578,0.829,0.531,1.034,0.728,0.337,0.591,0.556,�k��,3.2,��
2022/09/30,10:00,0.578,0.829,0.532,1.033,0.730,0.337,0.591,0.556,�k��,3.3,��
2022/09/30,10:10,0.577,0.829,0.530,1.031,0.731,0.339,0.591,0.555,���k��,2.8,��
2022/09/30,10:20,0.578,0.829,0.530,1.033,0.729,0.339,0.592,0.555,�k�k��,2.6,��
2022/09/30,10:30,0.578,0.831,0.530,1.031,0.732,0.338,0.592,0.557,�k��,3.4,��
2022/09/30,10:40,0.578,0.829,0.529,1.031,0.730,0.339,0.591,0.558,�k��,3.3,��
2022/09/30,10:50,0.579,0.829,0.532,1.032,0.730,0.339,0.593,0.555,�k��,3.5,��
2022/09/30,11:00,0.578,0.830,0.530,1.033,0.732,0.339,0.593,0.557,�k��,3.1,��
2022/09/30,11:10,0.579,0.830,0.531,1.032,0.733,0.339,0.591,0.556,���k��,3.3,��
2022/09/30,11:20,0.580,0.828,0.532,1.033,0.732,0.339,0.590,0.557,���k��,3.2,��
2022/09/30,11:30,0.579,0.834,0.532,1.033,0.733,0.337,0.593,0.557,�k��,2.6,��
2022/09/30,11:40,0.580,0.832,0.533,1.034,0.731,0.337,0.592,0.555,���k��,2.6,��
2022/09/30,11:50,0.579,0.833,0.533,1.031,0.732,0.337,0.593,0.557,���k��,2.5,��
2022/09/30,12:00,0.579,0.834,0.532,1.033,0.732,0.338,0.592,0.556,���k��,2.6,��
2022/09/30,12:10,0.581,0.833,0.534,1.032,0.733,0.338,0.592,0.557,�k��,1.9,��
2022/09/30,12:20,0.579,0.835,0.533,1.034,0.731,0.337,0.591,0.556,���k��,2.9,��
2022/09/30,12:30,0.581,0.834,0.533,1.032,0.735,0.339,0.591,0.557,���k��,3.1,��
2022/09/30,12:40,0.579,0.836,0.534,1.032,0.732,0.339,0.591,0.557,���k��,2.6,��
2022/09/30,12:50,0.580,0.837,0.532,1.033,0.733,0.338,0.590,0.555,��,2.9,��
2022/09/30,13:00,0.579,0.833,0.534,1.033,0.734,0.338,0.593,0.558,���k��,2.2,��
2022/09/30,13:10,0.580,0.832,0.533,1.035,0.735,0.339,0.592,0.557,��,2.8,��
2022/09/30,13:20,0.580,0.833,0.534,1.033,0.731,0.339,0.591,0.557,���k��,2.8,��
2022/09/30,13:30,0.580,0.832,0.533,1.036,0.733,0.337,0.591,0.557,���k��,2.0,��
2022/09/30,13:40,0.578,0.834,0.533,1.032,0.732,0.340,0.592,0.556,��,2.2,��
2022/09/30,13:50,0.580,0.835,0.532,1.033,0.733,0.339,0.591,0.557,���쓌,2.3,��
2022/09/30,14:00,0.579,0.834,0.532,1.033,0.732,0.339,0.591,0.557,�k��,2.2,��
2022/09/30,14:10,0.580,0.834,0.535,1.034,0.732,0.339,0.593,0.555,���k��,2.0,��
2022/09/30,14:20,0.582,0.833,0.533,1.036,0.734,0.339,0.592,0.557,���k��,2.2,��
2022/09/30,14:30,0.582,0.834,0.532,1.034,0.731,0.339,0.592,0.555,�쓌,2.6,��
2022/09/30,14:40,0.580,0.834,0.533,1.035,0.734,0.339,0.593,0.557,���쓌,2.6,��
2022/09/30,14:50,0.580,0.836,0.534,1.035,0.734,0.340,0.591,0.557,���쓌,2.0,��
2022/09/30,15:00,0.580,0.834,0.532,1.034,0.733,0.339,0.593,0.557,���쓌,2.8,��
2022/09/30,15:10,0.577,0.833,0.534,1.035,0.732,0.339,0.592,0.556,�쓌,2.3,��
2022/09/30,15:20,0.579,0.835,0.534,1.034,0.733,0.338,0.592,0.556,���쓌,2.2,��
2022/09/30,15:30,0.581,0.835,0.534,1.034,0.733,0.338,0.591,0.556,�쓌,2.0,��
2022/09/30,15:40,0.579,0.836,0.533,1.030,0.730,0.339,0.591,0.555,��쓌,2.6,��
2022/09/30,15:50,0.581,0.833,0.533,1.033,0.734,0.337,0.590,0.557,��쓌,2.5,��
2022/09/30,16:00,0.581,0.835,0.531,1.033,0.732,0.338,0.589,0.555,��쓌,2.6,��
2022/09/30,16:10,0.579,0.833,0.532,1.032,0.733,0.338,0.591,0.555,��쓌,2.9,��
2022/09/30,16:20,0.576,0.835,0.533,1.033,0.733,0.341,0.590,0.557,��쓌,3.0,��
2022/09/30,16:30,0.578,0.835,0.534,1.031,0.731,0.340,0.591,0.555,��,2.5,��
2022/09/30,16:40,0.578,0.838,0.534,1.034,0.733,0.339,0.591,0.556,��,3.0,��
2022/09/30,16:50,0.577,0.834,0.531,1.032,0.730,0.340,0.591,0.555,��쓌,2.9,��
2022/09/30,17:00,0.577,0.836,0.532,1.031,0.731,0.339,0.592,0.560,��쓌,2.3,��
2022/09/30,17:10,0.579,0.838,0.532,1.031,0.733,0.339,0.592,0.557,��쓌,1.5,��
2022/09/30,17:20,0.577,0.837,0.531,1.034,0.731,0.339,0.592,0.558,��쓌,2.3,��
2022/09/30,17:30,0.578,0.837,0.530,1.035,0.733,0.340,0.592,0.558,��,2.5,��
2022/09/30,17:40,0.578,0.837,0.533,1.033,0.734,0.339,0.592,0.558,��,2.0,��
2022/09/30,17:50,0.579,0.838,0.533,1.031,0.734,0.339,0.593,0.557,��,1.9,��
2022/09/30,18:00,0.580,0.837,0.534,1.034,0.736,0.339,0.592,0.558,��,1.4,��
2022/09/30,18:10,0.580,0.838,0.535,1.033,0.734,0.338,0.592,0.557,��쐼,1.2,��
2022/09/30,18:20,0.580,0.838,0.535,1.034,0.735,0.340,0.591,0.558,��,1.5,��
2022/09/30,18:30,0.579,0.836,0.535,1.032,0.733,0.340,0.591,0.558,��,2.0,��
2022/09/30,18:40,0.580,0.836,0.536,1.034,0.734,0.340,0.592,0.557,��쐼,1.5,��
2022/09/30,18:50,0.579,0.837,0.535,1.033,0.734,0.340,0.592,0.558,��쐼,1.5,��
2022/09/30,19:00,0.579,0.837,0.535,1.034,0.735,0.340,0.592,0.556,��쐼,1.5,��
2022/09/30,19:10,0.579,0.838,0.535,1.033,0.734,0.340,0.591,0.558,��쐼,1.5,��
2022/09/30,19:20,0.579,0.835,0.532,1.033,0.734,0.341,0.592,0.559,��쐼,1.2,��
2022/09/30,19:30,0.580,0.837,0.534,1.033,0.734,0.340,0.591,0.557,��쐼,1.2,��
2022/09/30,19:40,0.579,0.837,0.532,1.034,0.735,0.340,0.592,0.559,��쐼,1.5,��
2022/09/30,19:50,0.578,0.836,0.533,1.034,0.735,0.341,0.592,0.557,��쐼,1.4,��
2022/09/30,20:00,0.579,0.837,0.534,1.035,0.734,0.339,0.590,0.557,��쐼,1.4,��
2022/09/30,20:10,0.578,0.837,0.535,1.036,0.735,0.339,0.591,0.558,��쐼,1.5,��
2022/09/30,20:20,0.578,0.835,0.534,1.037,0.736,0.339,0.592,0.557,�쐼,1.5,��
2022/09/30,20:30,0.577,0.836,0.535,1.032,0.735,0.340,0.591,0.556,��쐼,1.2,��
2022/09/30,20:40,0.578,0.837,0.535,1.031,0.735,0.339,0.589,0.556,�쐼,1.4,��
2022/09/30,20:50,0.577,0.833,0.533,1.031,0.735,0.339,0.591,0.558,�쐼,1.4,��
2022/09/30,21:00,0.575,0.835,0.533,1.033,0.736,0.338,0.592,0.558,��쐼,1.5,��
2022/09/30,21:10,0.578,0.834,0.533,1.033,0.736,0.339,0.592,0.558,��쐼,1.4,��
2022/09/30,21:20,0.577,0.835,0.533,1.033,0.734,0.339,0.592,0.557,�쐼,1.4,��
2022/09/30,21:30,0.578,0.837,0.533,1.033,0.734,0.339,0.591,0.558,���쐼,1.4,��
2022/09/30,21:40,0.577,0.834,0.532,1.033,0.736,0.339,0.592,0.557,�쐼,1.2,��
2022/09/30,21:50,0.577,0.834,0.533,1.032,0.736,0.341,0.591,0.557,�쐼,1.5,��
2022/09/30,22:00,0.576,0.835,0.533,1.033,0.732,0.338,0.593,0.557,��쐼,1.5,��
2022/09/30,22:10,0.577,0.835,0.534,1.035,0.734,0.338,0.592,0.557,�쐼,1.1,��
2022/09/30,22:20,0.579,0.834,0.532,1.035,0.735,0.340,0.592,0.557,�쐼,1.1,��
2022/09/30,22:30,0.577,0.835,0.532,1.031,0.734,0.340,0.592,0.557,�쐼,1.2,��
2022/09/30,22:40,0.578,0.832,0.534,1.032,0.733,0.339,0.592,0.557,�쐼,1.4,��
2022/09/30,22:50,0.576,0.835,0.533,1.034,0.733,0.340,0.590,0.557,�쐼,1.4,��
2022/09/30,23:00,0.576,0.834,0.534,1.032,0.734,0.340,0.591,0.556,�쐼,1.2,��
2022/09/30,23:10,0.578,0.832,0.535,1.033,0.734,0.340,0.592,0.556,�쐼,1.4,��
2022/09/30,23:20,0.576,0.832,0.533,1.033,0.734,0.340,0.593,0.558,�쐼,1.2,��
2022/09/30,23:30,0.576,0.834,0.533,1.032,0.734,0.340,0.591,0.558,�쐼,1.1,��
2022/09/30,23:40,0.577,0.833,0.533,1.034,0.733,0.339,0.591,0.556,���쐼,1.1,��
2022/09/30,23:50,0.576,0.830,0.534,1.034,0.735,0.340,0.591,0.557,���쐼,0.9,��
